Home > Weather > Qaanaaq > Past weeks

Flag for Greenland Past Weather in Qaanaaq, Greenland — Yesterday and Last 2 Weeks

Now
46 °F

Sunny.


Feels Like: 40 °F
Forecast: 36 / 38 °F
Wind: 13 mph from South

Location: Thule A. B.

Current Time: Jul 27, 2016 at 4:00:50 AM

Latest Report: Jul 27, 2016 at 1:58 AM


Visibility: N/A

Pressure: 30.08 "Hg

Humidity: 70%

Dew Point: 36 °F

Location of QaanaaqLocation

Past Weather in Qaanaaq — Graph

°F

Qaanaaq Temperature Yesterday

Maximum temperature yesterday: 50 °F (at 2:58 AM)
Minimum temperature yesterday: 45 °F (at 6:58 AM)
Average temperature yesterday: 48 °F

High & Low Weather Summary for the Past Weeks

 TemperatureHumidityPressure
High61 °F (Jul 17, 1:58 PM)93% (Jul 12, 4:03 AM)30.19 "Hg (Jul 12, 4:03 AM)
Low37 °F (Jul 12, 3:58 AM)27% (Jul 17, 1:58 PM)29.37 "Hg (Jul 19, 3:58 PM)
Average46 °F72%29.84 "Hg
* Reported Jul 12 1:04 AM — Jul 27 1:58 AM, Qaanaaq, Weather by CustomWeather, © 2016

Note: Actual official high and low records may vary slightly from our data, if they occured in-between our weather recording intervals... More about our weather records

Advertising

Qaanaaq Weather History for the Previous 24 Hours

Scroll right to see more
 ConditionsComfort  
Time TempWeatherWind HumidityBarometerVisibility
1:58 AM
Wed, Jul 27
46 °FSunny.13 mph70%30.08 "HgN/A
12:58 AM46 °FSunny.15 mph71%30.07 "HgN/A
10:58 PM
Tue, Jul 26
46 °FSunny.25 mph71%30.04 "HgN/A
9:58 PM48 °FPartly sunny.22 mph66%30.03 "HgN/A
8:58 PM50 °FPartly sunny.25 mph62%30.02 "HgN/A
7:58 PM50 °FPassing clouds.25 mph67%30.02 "HgN/A
6:58 PM50 °FBroken clouds.26 mph67%30.01 "HgN/A
5:58 PM50 °FScattered clouds.24 mph67%30.00 "HgN/A
5:03 PM50 °FBroken clouds.26 mph67%30.02 "HgN/A
4:58 PM50 °FSprinkles. Broken clouds.24 mph71%29.97 "HgN/A
3:58 PM50 °FSprinkles. Partly sunny.23 mph71%29.96 "HgN/A
2:58 PM46 °FSprinkles. Overcast.30 mph82%29.95 "Hg6 mi
1:58 PM48 °FBroken clouds.21 mph71%29.96 "HgN/A
12:58 PM48 °FPassing clouds.30 mph71%29.96 "HgN/A
11:58 AM48 °FPartly sunny.26 mph71%29.97 "HgN/A
10:58 AM46 °FPartly sunny.24 mph76%29.98 "HgN/A
9:58 AM46 °FPartly sunny.26 mph71%29.98 "HgN/A
8:58 AM45 °FBroken clouds.25 mph76%29.98 "HgN/A
7:58 AM45 °FPartly sunny.26 mph81%30.00 "HgN/A
6:58 AM45 °FOvercast.24 mph76%30.00 "HgN/A
5:58 AM46 °FOvercast.37 mph76%29.97 "HgN/A
4:58 AM46 °FMostly cloudy.23 mph76%29.99 "HgN/A
Weather by CustomWeather, © 2016

See weather overviewHow to use our weather pages